COSMOS 2404 (701) 1 28112U 03056A 09183.87490012 -.00000063 00000-0 10000-3 0 6160 2 28112 63.9438 282.1193 0045737 103.3792 271.9865 2.13095936 43289 COSMOS 2403 (795) 1 28114U 03056C 09183.72747059 -.00000064 00000-0 10000-3 0 5500 2 28114 63.9682 282.1511 0037339 80.9610 278.7584 2.13104526 43272 COSMOS 2413 (712) 1 28509U 04053B 09184.42596512 -.00000057 00000-0 10000-3 0 2688 2 28509 63.8394 280.8993 0007310 157.6319 233.5572 2.13100184 35163 COSMOS 2419 (714) 1 28915U 05050A 09184.31763120 .00000062 00000-0 10000-3 0 9936 2 28915 64.8660 163.2632 0009835 322.7156 12.6491 2.13101938 27405 COSMOS 2418 (713) 1 28916U 05050B 09184.14194172 .00000064 00000-0 10000-3 0 9823 2 28916 64.8843 163.3031 0020680 329.7387 184.3906 2.13104153 27407 COSMOS 2425 (716) 1 29670U 06062A 09183.44566361 -.00000054 00000-0 10000-3 0 7132 2 29670 65.3917 42.4365 0024109 354.3088 20.3784 2.13103269 19593 COSMOS 2426 (717) 1 29671U 06062B 09184.13377813 -.00000049 00000-0 10000-3 0 7215 2 29671 65.4088 42.4422 0018033 164.1091 244.6803 2.13103754 19613 COSMOS 2424 (715) 1 29672U 06062C 09183.15506795 -.00000056 00000-0 10000-3 0 7375 2 29672 65.3943 42.4498 0015648 162.5783 35.5690 2.13103690 19581 COSMOS 2433 (720) 1 32275U 07052A 09184.30737578 .00000061 00000-0 00000+0 0 4659 2 32275 64.8777 163.0039 0005281 272.5656 236.6824 2.13102432 13127 COSMOS 2432 (719) 1 32276U 07052B 09183.98048406 .00000066 00000-0 10000-3 0 4434 2 32276 64.8914 163.0385 0016250 331.0750 241.8983 2.13102201 13116 COSMOS 2431 (718) 1 32277U 07052C 09183.26503045 .00000075 00000-0 00000-0 0 4572 2 32277 64.8942 163.0561 0018889 199.8862 319.5716 2.13102334 13189 COSMOS 2434 (721) 1 32393U 07065A 09183.90638793 -.00000052 00000-0 00000-0 0 3019 2 32393 65.0127 42.9414 0005363 106.4093 351.2337 2.13103187 11829 COSMOS 2435 (722) 1 32394U 07065B 09183.07475106 -.00000058 00000-0 00000-0 0 2717 2 32394 65.0117 42.9729 0004030 69.2029 290.9006 2.13103407 11741 COSMOS 2436 (723) 1 32395U 07065C 09183.19161350 -.00000057 00000-0 10000-3 0 2818 2 32395 65.0233 42.9688 0018899 359.9013 0.1586 2.13103541 11748 COSMOS 2442 (724) 1 33378U 08046A 09183.86749164 .00000066 00000-0 10000-3 0 2379 2 33378 64.7909 162.6629 0029865 331.4250 245.0352 2.13102264 5974 COSMOS 2443 (725) 1 33379U 08046B 09184.18685677 .00000062 00000-0 10000-3 0 2280 2 33379 64.7994 162.6852 0020963 190.0004 136.7977 2.13102448 5987 COSMOS 2444 (726) 1 33380U 08046C 09183.54965648 .00000071 00000-0 10000-3 0 2279 2 33380 64.8083 162.7144 0031732 325.5688 187.2848 2.13102679 5965 COSMOS 2447 (727) 1 33466U 08067A 09183.88206324 -.00000066 00000-0 00000-0 0 1701 2 33466 64.6945 283.7485 0003751 232.4024 280.1194 2.13101691 4034 COSMOS 2449 (729) 1 33467U 08067B 09183.98908961 -.00000065 00000-0 00000+0 0 1707 2 33467 64.6813 283.7329 0003132 250.6388 119.2607 2.13101840 4064 COSMOS 2448 (728) 1 33468U 08067C 09183.81432618 -.00000066 00000-0 00000+0 0 1757 2 33468 64.6854 283.7383 0003377 290.0956 215.3196 2.13101294 4042